Location: East Irvine
(33.6759°N, 117.7598°W)
Time: 01:06:11
(UTC+00:00)

USA 281 - Pass Details

Date: 15 November 2025
Orbit: 1079 x 1080 km, 106.0° (Epoch: 27 November)

Event Time Altitude Azimuth Distance (km) Brightness Sun altitude
Exits shadow 02:54:10 26° 19° (NNE) 1,995 4.4 -26.2°
Drops below altitude 10° 02:57:22 10° 357° (N) 2,924 5.5 -26.9°
Sets 03:00:05 0° 349° (N) 3,883 6.2 -27.4°
